Location: Strawberry
(45.6646°N, 111.9596°W)
Time: 00:47:29
(UTC+00:00)

Vanguard 1 Rocket - Pass Details

Date: 28 September 2022
Orbit: 650 x 4225 km, 34.3° (Epoch: 05 December)

Event Time Altitude Azimuth Distance (km) Brightness Sun altitude
Rises 03:47:10 0° 227° (SW) 7,707 12.4 -26.5°
Reaches altitude 10° 03:53:43 10° 220° (SW) 6,158 11.7 -27.5°
Enters shadow 04:07:53 34° 166° (SSE) 3,126 9.7 -29.7°
